DELTA 1 DEB, 42086

Orbit data source: Space-Track

DELTA 1 DEB, 42086 is space debris in LEO originally from a launch on Sun, 15 Dec 1968 UTC launched from the Air Force Western Test Range (AFWTR). Debris objects in space refer to the collection of defunct objects orbiting the Earth. Examples of debris include non-operational satellites, rocket bodies, and fragments generated from explosions, collisions, or faulty payload assembly.

Loading next visibility...
DELTA 1 DEB details
Identifier
42086, 1968-114N
Orbit
LEO
Last TLE update1 month ago
Origin
Flag of USGSFC (US)
ManufacturerAerojet
MissionSpacecraft
Bus & MotorUnknown
MassUnknown
Launch date (UTC)
1968-12-15 (56 years ago)
Launch vehicleUnknown
Launch site
Air Force Western Test Range (AFWTR)
Object type
Payload
Rocket body
Debris
Shape & HBRUnknown
Radar Cross SectionSmall (<0.1 m²)

Expand to show TLE details & history

TLE from 1 month ago
0 DELTA 1 DEB
1 42086U 68114N   24319.19582241  .00000262  00000-0  34376-2 0  9996
2 42086 102.1159 281.4662 0349523 353.7041  16.6135 11.92868117143913
Epoch: 2024-11-14T04:41Z
Definitive object data (Epoch: 2024-11-14T04:41:59.056Z)
Latitude11.21248°
Longitude154.76178°
Altitude1,444.502 km
Speed7.259 km/s
True Right ascension18h 36m 09s
True Declination11° 09' 10"
Sunlit
Object was in daylight at TLE epoch
Visualization TLE readout
Latitude50.48827°
Longitude31.0329°
Altitude1,971.76 km
Speed6.807 km/s
Apparent Right ascension08h 51m 08s
Apparent Declination14° 04' 05"
Sunlit
Object is in daylight
Visualization observer readout
Local Sidereal Time19:12:48
Azimuth331.792° NNW
Elevation-31.37°
Doppler factor1
Orbital elements
Apogee altitude1,993.309 km
Perigee altitude1,427.87 km
Semi-major axis8,088.727 km
Eccentricity0.0349523
Inclination102.1159°
RAAN281.4662°
Arg. of periapsis353.7041°
True anomaly17.80851°
Mean anomaly16.6135°
Eccentric anomaly17.20589°
Mean motion2.98348 °/min
BSTAR0.0034376
Orbital period120.66 mins
Loading maneuver chart data...
Loading historical data...
Loading historical data...
Loading historical data...
Loading historical data...
Loading historical data...
Loading historical data...
Loading historical data...

DELTA 1 DEB Visibility forecast

Observer location: undefined°, undefined

Span
Click to sort rows by Start time (UTC) header in descending order
Start Az.
Max El. time (UTC)
Max El. Az.
Max El.
End time (UTC)
End Az.
19 mins2024-12-26 21:11:04.456Z160.87° S2024-12-26 21:20:04.456Z309.041° NW44.924°2024-12-26 21:30:04.456Z341.995° N
12 mins2024-12-26 23:14:04.456Z234.508° WSW2024-12-26 23:19:04.456Z268.527° W18.666°2024-12-26 23:26:04.456Z312.772° NW
18 mins2024-12-27 09:51:04.456Z26.844° NE2024-12-27 10:00:04.456Z102.812° ESE40.908°2024-12-27 10:09:04.456Z179.816° S
17 mins2024-12-27 11:49:04.456Z3.829° NNE2024-12-27 11:58:04.456Z298.946° NW32.973°2024-12-27 12:06:04.456Z241.75° WSW
15 mins2024-12-27 19:25:04.456Z99.957° ESE2024-12-27 19:32:04.456Z48.271° ENE26.289°2024-12-27 19:40:04.456Z358.316° N
|